Location: Guayaquil
(2.1667°S, 79.9000°W)
Time: 17:29:48
(UTC-05:00)

Tiangong 1 - Visible Passes

Search period start: 26 May 2017 00:00
Search period end: 05 June 2017 00:00
Orbit: 323 x 350 km, 42.8° (Epoch: 25 May)

Date Brightness Start Highest point End Pass type
(mag) Time Alt. Az. Time Alt. Az. Time Alt. Az.
27 May 1.7 05:18:22 22° SSW 05:19:48 42° SE 05:22:29 10° ENE visible
28 May 2.1 05:38:33 14° W 05:40:19 26° NW 05:42:45 10° NNE visible
29 May 4.0 04:27:23 15° ENE 04:27:23 15° ENE 04:28:02 10° ENE visible
30 May 3.4 04:47:22 15° N 04:47:22 15° N 04:48:08 10° NNE visible
